Back to catalog

STARLINK-37542

AliveCommunicationsSSO
NORAD 68917·PAYLOAD·🇺🇸 United States

Launched Apr 30, 2026 from Vandenberg Space Force Base

Loading…

Next Passes (next 24 hours)

TLE

FreshSource: CelesTrak SupGP

Epoch: Sep 14, 2026, 23:08 UTC

1 68917C 26097Y   26257.96437500  .00079601  00000+0  24711-2 0  2577
2 68917  97.2852  92.2388 0001677  96.9279  28.4783 15.33397192    17

Track STARLINK-37542 in real time with AllMySat

Download on the App Store